Location: Zagreb
(45.8000°N, 16.0000°E)
Time: 20:20:23
(UTC+01:00)

DX 1 - Pass Details

Date: 04 November 2020
Orbit: 619 x 630 km, 98.5° (Epoch: 01 December)

Event Time Altitude Azimuth Distance (km) Brightness Sun altitude
Exits shadow 17:39:17 - 27° (NNE) 2,690 ? -11.1°
Reaches altitude 10° 17:41:12 10° 38° (NE) 2,002 ? -11.4°
Maximum altitude 17:44:52 26° 95° (E) 1,228 ? -12.1°
Drops below altitude 10° 17:48:32 10° 153° (SSE) 1,994 ? -12.7°
Sets 17:51:00 0° 166° (SSE) 2,897 ? -13.1°
